Flag for Canada Weather past 2 weeks in Saint John, New Brunswick, Canada

Now
75 °F

Overcast.


Feels Like: 78 °F
Forecast: N/A
Wind: 9 mph from Southwest

Location: Saint John

Current Time: Jul 6, 2015 at 6:01:01 PM

Latest Report: Jul 6, 2015 at 5:00 PM


Visibility: 15 mi

Pressure: 30.13 "Hg

Humidity: 54%

Dew point: 57 °F

Location of Saint JohnLocation

Historic Weather in Saint John — Graph

°F

Saint John temperature yesterday

Maximum temperature yesterday: 77 °F (at 2:00 PM)
Minimum temperature yesterday: 48 °F (at 6:00 AM)
Average temperature yesterday: 65 °F

Past Weeks' High & Low Weather Summary

 TemperatureHumidityPressure
High79 °F (Jul 6, 1:00 PM)100% (Jun 21, 8:00 PM)30.21 "Hg (Jun 21, 8:00 PM)
Low43 °F (Jul 4, 4:00 AM)33% (Jun 25, 2:00 PM)29.63 "Hg (Jun 22, 4:00 AM)
Average59 °F79%29.92 "Hg
* Reported Jun 21 5:00 PM — Jul 6 5:00 PM, Saint John, Weather by CustomWeather, © 2015

Note: Actual official high and low records may vary slightly from our data, if they occured in-between our weather recording intervals... More about our weather records

Advertising

Saint John weather history for previous 24 hours

 ConditionsComfort  
Time TempWeatherWind HumidityBarometerVisibility
5:00 PM
Mon, Jul 6
75 °FOvercast.9 mph54%30.13 "Hg15 mi
4:00 PM75 °FOvercast.13 mph61%30.12 "Hg15 mi
3:00 PM77 °FPartly sunny.8 mph57%30.14 "Hg15 mi
2:00 PM77 °FScattered clouds.13 mph61%30.14 "Hg15 mi
1:00 PM79 °FPassing clouds.7 mph51%30.15 "Hg15 mi
12:00 PM75 °FPassing clouds.8 mph57%30.15 "Hg15 mi
11:00 AM75 °FPassing clouds.6 mph65%30.14 "Hg15 mi
10:00 AM70 °FScattered clouds.6 mph73%30.13 "Hg15 mi
9:00 AM68 °FPartly sunny.6 mph78%30.13 "Hg15 mi
8:00 AM64 °FHigh level clouds.3 mph88%30.11 "Hg15 mi
7:00 AM59 °FPartly sunny.2 mph100%30.10 "Hg15 mi
6:00 AM52 °FPassing clouds.2 mph100%30.08 "Hg15 mi
5:00 AM50 °FPassing clouds.2 mph100%30.07 "Hg15 mi
4:00 AM52 °FPassing clouds.No wind94%30.06 "Hg15 mi
3:00 AM52 °FPassing clouds.No wind100%30.05 "Hg15 mi
2:00 AM52 °FPassing clouds.3 mph100%30.05 "Hg15 mi
1:00 AM55 °FPassing clouds.No wind100%30.05 "Hg15 mi
12:00 AM57 °FPassing clouds.No wind94%30.05 "Hg15 mi
11:00 PM
Sun, Jul 5
64 °FPassing clouds.3 mph83%30.03 "Hg15 mi
10:00 PM68 °FPartly sunny.7 mph73%30.02 "Hg15 mi
9:00 PM68 °FBroken clouds.6 mph73%29.98 "Hg15 mi
8:00 PM68 °FBroken clouds.8 mph73%29.98 "Hg15 mi
7:00 PM72 °FBroken clouds.8 mph65%29.96 "Hg15 mi
6:00 PM73 °FPartly sunny.13 mph57%29.96 "Hg15 mi
Weather by CustomWeather, © 2015

See weather overviewHow to use our weather pages